Time,TemperatureF,DewpointF,PressureIn,WindDirection,WindDirectionDegrees,WindSpeedMPH,WindSpeedGustMPH,Humidity,HourlyPrecipIn,Conditions,Clouds,dailyrainin,SoftwareType,DateUTC
2013-03-25 00:00:00,54.0,41.0,-100.00,ESE,105,4.0,-999.0,61,0.00,,,-99.99,,2013-03-25 07:00:00,
2013-03-25 00:22:00,54.0,41.0,-100.00,ESE,105,4.0,-999.0,61,0.00,,,-99.99,,2013-03-25 07:22:00,
2013-03-25 00:32:00,54.0,41.0,-100.00,ESE,105,4.0,-999.0,61,0.00,,,-99.99,,2013-03-25 07:32:00,
2013-03-25 00:42:00,54.0,41.0,-100.00,ESE,105,4.0,-999.0,61,0.00,,,-99.99,,2013-03-25 07:42:00,
2013-03-25 00:52:00,54.0,41.0,-100.00,ESE,105,4.0,-999.0,61,0.00,,,-99.99,,2013-03-25 07:52:00,
2013-03-25 01:00:00,55.0,41.0,-100.00,East,94,2.0,-999.0,59,0.00,,,-99.99,,2013-03-25 08:00:00,
2013-03-25 01:23:00,55.0,41.0,-100.00,East,94,2.0,-999.0,59,0.00,,,-99.99,,2013-03-25 08:23:00,
2013-03-25 01:32:00,55.0,41.0,-100.00,East,94,2.0,-999.0,59,0.00,,,-99.99,,2013-03-25 08:32:00,
2013-03-25 01:43:00,55.0,41.0,-100.00,East,94,2.0,-999.0,59,0.00,,,-99.99,,2013-03-25 08:43:00,
2013-03-25 01:52:00,55.0,41.0,-100.00,East,94,2.0,-999.0,59,0.00,,,-99.99,,2013-03-25 08:52:00,
2013-03-25 02:00:00,51.0,41.0,-100.00,SE,125,2.0,-999.0,66,0.00,,,-99.99,,2013-03-25 09:00:00,
2013-03-25 02:22:00,51.0,41.0,-100.00,SE,125,2.0,-999.0,66,0.00,,,-99.99,,2013-03-25 09:22:00,
2013-03-25 02:33:00,51.0,41.0,-100.00,SE,125,2.0,-999.0,66,0.00,,,-99.99,,2013-03-25 09:33:00,
2013-03-25 02:43:00,51.0,41.0,-100.00,SE,125,2.0,-999.0,66,0.00,,,-99.99,,2013-03-25 09:43:00,
2013-03-25 02:52:00,51.0,41.0,-100.00,SE,125,2.0,-999.0,66,0.00,,,-99.99,,2013-03-25 09:52:00,
2013-03-25 03:00:00,50.0,40.0,-100.00,East,81,3.0,-999.0,67,0.00,,,-99.99,,2013-03-25 10:00:00,
2013-03-25 03:23:00,50.0,40.0,-100.00,East,81,3.0,-999.0,67,0.00,,,-99.99,,2013-03-25 10:23:00,
2013-03-25 03:33:00,50.0,40.0,-100.00,East,81,3.0,-999.0,67,0.00,,,-99.99,,2013-03-25 10:33:00,
2013-03-25 03:42:00,50.0,40.0,-100.00,East,81,3.0,-999.0,67,0.00,,,-99.99,,2013-03-25 10:42:00,
2013-03-25 03:53:00,50.0,40.0,-100.00,East,81,3.0,-999.0,67,0.00,,,-99.99,,2013-03-25 10:53:00,
2013-03-25 04:00:00,51.0,39.0,-100.00,ESE,123,4.0,-999.0,63,0.00,,,-99.99,,2013-03-25 11:00:00,
2013-03-25 04:42:00,51.0,39.0,-100.00,ESE,123,4.0,-999.0,63,0.00,,,-99.99,,2013-03-25 11:42:00,
2013-03-25 04:52:00,51.0,39.0,-100.00,ESE,123,4.0,-999.0,63,0.00,,,-99.99,,2013-03-25 11:52:00,
2013-03-25 05:00:00,45.0,39.0,-100.00,South,174,3.0,-999.0,79,0.00,,,-99.99,,2013-03-25 12:00:00,
2013-03-25 05:23:00,45.0,39.0,-100.00,South,174,3.0,-999.0,79,0.00,,,-99.99,,2013-03-25 12:23:00,
2013-03-25 05:33:00,45.0,39.0,-100.00,South,174,3.0,-999.0,79,0.00,,,-99.99,,2013-03-25 12:33:00,
2013-03-25 05:43:00,45.0,39.0,-100.00,South,174,3.0,-999.0,79,0.00,,,-99.99,,2013-03-25 12:43:00,
2013-03-25 05:53:00,45.0,39.0,-100.00,South,174,3.0,-999.0,79,0.00,,,-99.99,,2013-03-25 12:53:00,
2013-03-25 06:00:00,43.0,37.0,-100.00,WSW,238,3.0,-999.0,79,0.00,,,-99.99,,2013-03-25 13:00:00,
2013-03-25 06:23:00,43.0,37.0,-100.00,WSW,238,3.0,-999.0,79,0.00,,,-99.99,,2013-03-25 13:23:00,
2013-03-25 06:32:00,43.0,37.0,-100.00,WSW,238,3.0,-999.0,79,0.00,,,-99.99,,2013-03-25 13:32:00,
2013-03-25 06:43:00,43.0,37.0,-100.00,WSW,238,3.0,-999.0,79,0.00,,,-99.99,,2013-03-25 13:43:00,
2013-03-25 06:52:00,43.0,37.0,-100.00,WSW,238,3.0,-999.0,79,0.00,,,-99.99,,2013-03-25 13:52:00,
2013-03-25 07:00:00,45.0,38.0,-100.00,SE,126,4.0,-999.0,78,0.00,,,-99.99,,2013-03-25 14:00:00,
2013-03-25 07:23:00,45.0,38.0,-100.00,SE,126,4.0,-999.0,78,0.00,,,-99.99,,2013-03-25 14:23:00,
2013-03-25 07:32:00,45.0,38.0,-100.00,SE,126,4.0,-999.0,78,0.00,,,-99.99,,2013-03-25 14:32:00,
2013-03-25 07:43:00,45.0,38.0,-100.00,SE,126,4.0,-999.0,78,0.00,,,-99.99,,2013-03-25 14:43:00,
2013-03-25 07:52:00,45.0,38.0,-100.00,SE,126,4.0,-999.0,78,0.00,,,-99.99,,2013-03-25 14:52:00,